GEFSNE_500_meanwind_336.txt.gz
Wind_Speed
19 20 20 21 20 20 19 18 18 18 17 18 19 19 18 18 19 19 19 20 21 21 22 22 22 22 23 23 22 22 22 21 21 21 21 22 22 21
21 22 22 22 22 21 20 20 20 20 19 20 20 20 21 21 20 21 21 22 22 22 22 23 23 24 24 24 23 23 24 24 24 23 23 23 23 23
22 22 22 22 22 22 22 22 22 22 22 22 22 22 22 22 23 22 22 23 23 23 24 24 24 24 25 25 25 25 25 25 26 26 26 26 26 25
23 23 23 23 23 23 23 23 23 23 23 23 24 24 24 24 24 24 24 24 24 25 25 25 25 26 26 26 27 27 27 27 27 28 28 28 27 28
25 24 24 24 24 24 24 25 25 24 25 25 25 25 25 25 25 25 25 25 25 25 25 26 26 26 27 27 27 27 27 27 27 28 28 29 29 29
26 25 25 26 26 26 26 26 26 26 26 26 26 26 26 26 25 26 26 26 26 25 25 25 26 26 26 27 27 28 28 28 28 28 29 30 31 31
26 26 27 27 27 27 27 27 27 28 28 28 27 27 27 27 27 26 26 25 25 25 25 26 27 27 27 27 28 28 29 29 29 29 30 30 31 32
28 29 29 29 29 29 29 29 29 29 28 28 27 27 27 28 28 27 27 26 26 26 26 26 27 27 28 28 29 29 30 30 30 30 31 31 32 33
30 30 30 31 31 31 31 31 31 30 29 28 28 29 29 29 29 28 28 27 27 27 27 27 28 28 28 29 30 30 30 31 31 31 32 32 32 33
31 31 31 32 32 32 32 32 31 30 31 31 30 31 31 31 30 30 29 29 28 28 28 28 28 28 29 29 30 31 31 31 31 31 31 32 32 32
32 32 32 32 33 33 33 32 31 31 31 31 30 31 31 31 30 30 30 30 30 30 30 30 29 29 29 30 31 31 31 31 30 30 31 31 31 31
33 32 32 33 33 33 32 32 31 31 31 31 31 30 31 31 30 30 31 31 30 31 31 31 31 30 30 30 31 31 31 31 31 30 30 31 32 32
34 33 33 34 34 33 33 32 32 32 32 32 32 32 32 31 31 31 31 31 30 30 30 31 31 31 30 30 31 31 31 31 30 30 31 31 31 32
35 35 34 34 34 33 33 33 33 33 33 32 32 32 32 32 31 31 31 31 31 31 32 32 32 31 30 30 30 30 31 31 31 31 31 31 31 31
35 35 35 34 33 32 32 33 33 33 34 33 33 33 32 32 32 32 32 33 32 32 33 34 34 32 31 30 29 30 30 30 30 30 30 30 30 29
36 35 34 33 33 34 34 34 34 34 34 33 33 33 33 33 32 33 33 33 33 32 33 34 33 31 30 30 30 30 29 29 29 29 30 29 29 29
35 34 34 34 34 34 34 34 34 34 33 33 33 33 33 33 33 32 32 32 32 33 34 33 33 32 31 30 30 29 29 28 28 28 27 27 28 29
35 35 34 34 34 34 34 33 33 33 33 33 33 33 33 32 32 31 31 31 31 32 33 32 31 31 30 29 29 29 28 28 28 28 27 27 27 28
34 34 33 33 34 34 34 33 33 33 32 32 33 33 32 32 32 31 32 31 31 32 32 31 30 30 29 28 27 27 27 27 27 27 27 27 27 27
33 33 33 34 33 33 32 32 31 31 31 31 32 32 32 32 32 31 31 32 32 32 31 31 30 29 28 27 26 25 25 25 26 26 26 26 25 26
32 32 32 33 32 32 31 30 30 30 31 31 31 31 31 31 31 31 31 32 32 32 30 29 29 28 28 27 26 25 24 24 24 24 25 25 24 24
32 32 31 31 31 31 30 30 30 30 30 30 30 31 31 31 31 31 31 31 32 30 28 28 27 26 26 26 25 24 24 24 23 23 23 24 23 23
31 31 30 31 31 30 30 30 30 30 30 30 30 30 31 31 31 31 31 30 29 28 27 27 26 25 25 24 24 24 24 24 24 23 22 22 22 22

GEFSNE_500_meanwind_342.txt.gz
Wind_Speed
20 21 22 22 22 22 21 21 21 21 20 21 21 21 21 22 22 22 23 23 23 23 23 23 23 22 22 22 22 23 23 23 22 23 23 22 22 23
22 24 24 24 24 23 23 23 23 23 22 22 22 23 23 23 24 25 25 25 25 25 25 24 24 24 23 23 23 23 24 24 24 24 24 24 24 24
24 24 25 25 25 24 24 25 25 25 24 24 24 25 25 25 25 26 26 26 26 26 26 25 25 25 25 25 24 24 25 25 25 25 25 26 26 26
25 25 26 26 26 25 25 26 26 26 26 26 26 26 26 26 27 27 27 27 27 27 27 27 27 26 26 26 26 26 26 27 27 27 27 27 26 26
25 26 26 27 26 26 27 27 27 27 27 28 28 27 27 27 28 27 27 27 27 27 27 27 27 27 27 27 27 27 28 28 28 29 29 28 28 28
26 27 28 27 28 28 28 29 29 28 29 29 29 28 28 28 28 28 27 27 27 28 27 27 27 27 27 27 28 28 28 28 29 29 30 30 30 29
28 28 29 29 29 29 29 29 29 30 30 29 28 28 28 28 28 29 29 29 28 28 28 28 28 28 28 28 28 28 28 29 29 29 30 30 30 30
30 30 30 31 31 31 31 31 31 30 30 29 28 28 28 29 30 30 30 30 29 29 29 28 28 28 29 29 29 29 29 29 29 29 29 30 30 31
31 31 32 32 32 31 31 31 31 30 30 30 30 29 29 30 30 31 31 31 30 30 30 29 29 29 29 30 30 30 30 30 30 30 30 30 30 30
32 32 32 32 32 31 31 31 31 31 31 31 31 31 31 31 31 31 31 31 30 31 31 30 30 30 30 31 31 31 31 31 31 31 30 31 31 31
33 33 33 33 33 32 32 31 31 31 31 31 31 32 32 32 32 32 32 32 31 31 31 31 31 31 31 31 32 32 32 32 32 32 31 31 31 32
33 33 33 32 32 32 32 32 32 32 33 33 33 33 33 33 33 33 33 32 32 31 31 31 32 32 31 32 32 32 32 32 32 32 32 32 32 33
33 32 32 33 33 34 33 33 33 33 33 33 33 33 34 34 34 33 33 32 32 31 31 31 31 31 31 32 32 33 33 33 32 32 32 32 32 32
33 33 33 33 33 33 33 33 34 34 34 34 34 34 34 34 34 34 33 33 32 32 32 32 31 31 31 31 31 32 32 33 32 32 32 32 32 32
33 34 34 34 33 32 33 33 34 35 35 35 35 35 35 35 35 33 32 32 32 31 32 32 32 31 31 31 31 31 32 32 33 33 32 32 31 31
33 33 33 33 33 33 33 33 34 34 34 34 34 33 34 33 33 32 32 32 31 31 32 32 31 31 30 31 31 31 31 31 31 32 32 32 32 32
33 32 32 32 33 33 33 33 33 34 34 33 33 33 32 32 32 31 31 31 31 31 31 31 30 30 30 30 30 30 30 31 31 32 31 30 29 30
32 32 32 32 32 32 32 32 32 32 32 32 32 31 31 31 30 30 29 30 30 30 30 29 29 29 30 30 29 29 30 30 31 31 30 29 28 27
32 32 31 31 31 31 31 31 31 30 30 30 30 30 30 29 29 28 29 29 29 29 29 28 29 29 29 29 28 28 28 28 27 27 27 27 26 26
31 31 30 30 30 30 29 29 28 28 27 28 28 28 28 28 27 27 27 28 28 28 28 28 28 28 28 28 27 26 26 26 26 25 25 25 25 24
30 30 30 29 29 29 28 27 27 27 26 27 27 27 26 27 27 27 27 27 27 28 27 27 27 27 27 27 26 25 24 24 24 24 24 24 23 23
28 28 29 29 29 28 28 28 27 27 27 26 26 26 26 27 27 27 27 27 27 27 27 27 27 27 27 26 25 23 22 22 23 23 23 22 22 22
28 28 27 27 28 27 28 27 27 27 27 27 26 26 26 27 27 27 27 26 25 25 25 26 26 26 26 26 26 24 23 22 22 22 21 21 21 21

GEFSNE_500_meanwind_348.txt.gz
Wind_Speed
22 23 23 23 23 23 23 23 23 23 22 23 23 22 22 22 22 22 22 23 23 23 23 23 23 23 23 22 23 23 22 21 21 21 21 20 20 20
24 24 23 24 23 24 24 25 25 24 23 23 23 23 23 24 24 23 23 23 24 24 24 24 24 24 24 23 23 23 23 23 22 22 22 22 22 22
25 24 24 25 26 26 25 26 26 25 24 23 24 25 24 25 25 24 24 24 24 25 25 25 25 25 24 24 25 24 24 24 23 23 22 23 24 24
25 25 26 27 28 27 27 27 26 26 26 25 25 25 25 25 26 26 26 25 26 25 24 24 24 25 25 25 25 25 25 24 24 24 24 24 25 25
27 27 28 29 29 28 28 28 27 27 26 26 25 26 27 27 27 27 26 26 26 26 24 24 24 25 25 25 26 26 26 25 25 25 25 26 26 26
30 30 31 31 30 30 30 29 28 27 27 26 26 26 27 28 27 27 26 26 26 25 25 26 26 26 26 27 26 27 27 27 26 26 26 26 27 27
31 31 32 32 31 31 30 29 28 27 27 27 27 27 27 27 26 26 26 25 26 27 26 27 27 27 27 27 27 27 28 28 27 27 27 27 27 27
32 33 32 32 31 30 29 28 28 27 28 28 28 27 26 27 27 27 27 27 28 28 28 28 28 28 28 29 29 29 29 29 29 29 28 28 28 27
34 33 32 31 30 30 30 29 29 29 29 29 28 28 28 28 29 29 30 30 29 30 30 29 29 29 29 30 30 30 30 30 30 30 30 29 29 28
33 33 32 32 31 31 31 30 30 30 30 30 30 29 29 30 30 30 30 31 30 30 30 30 30 30 30 30 30 30 30 30 30 30 30 30 30 30
34 33 33 32 31 31 31 31 31 31 31 31 30 30 30 30 31 31 31 31 31 31 31 31 31 31 30 31 31 30 30 29 30 30 30 30 30 30
34 34 33 31 31 32 31 31 31 31 31 31 31 31 31 31 31 31 31 31 31 31 31 31 31 31 30 30 30 30 29 29 30 30 30 30 30 29
33 32 32 31 31 31 31 31 31 31 31 31 31 31 31 30 30 31 31 32 32 32 32 32 31 31 30 29 30 30 30 30 30 30 30 29 29 29
32 31 31 31 31 31 30 30 30 30 30 30 31 30 30 30 30 31 31 31 31 31 31 30 30 30 30 30 30 30 30 30 29 29 29 29 29 29
31 30 31 30 30 30 30 30 30 30 30 30 30 30 30 30 30 30 30 31 31 30 30 30 29 29 29 29 29 28 28 28 28 28 29 29 29 29
30 30 30 29 29 30 30 31 31 31 30 30 30 30 30 30 30 30 30 30 30 30 30 30 29 29 29 28 27 27 28 28 28 28 29 29 28 28
30 30 30 29 29 30 30 30 30 30 30 29 29 30 30 29 29 29 29 29 29 29 29 29 29 28 27 27 26 26 27 27 28 28 28 28 28 28
30 30 30 31 30 30 30 30 29 29 29 29 29 29 29 28 28 28 28 28 28 28 28 27 27 27 27 27 27 27 28 27 27 28 28 27 27 26
30 30 30 31 31 30 29 28 28 29 29 28 28 28 28 28 27 27 28 27 27 26 26 26 26 26 27 27 27 27 27 27 27 27 27 26 26 25
30 30 30 30 30 30 29 28 28 28 28 28 28 28 28 28 27 27 27 27 26 26 26 26 26 27 26 26 26 26 26 26 26 25 25 25 25 24
30 30 30 30 30 29 29 29 29 28 28 27 27 27 27 27 27 27 27 26 26 26 26 26 26 26 26 27 26 25 25 24 24 24 23 23 24 23
30 30 30 30 29 29 29 28 28 27 27 27 27 27 27 26 26 26 26 25 25 25 25 25 25 25 26 26 26 25 24 24 24 23 22 22 22 22
30 30 30 29 29 29 29 28 27 27 27 28 27 27 27 26 26 26 25 25 25 26 26 25 25 25 25 25 24 23 23 22 22 21 21 21 20 20

GEFSNE_500_meanwind_354.txt.gz
Wind_Speed
19 20 20 20 20 19 18 19 19 20 21 22 22 22 21 21 21 21 20 20 20 20 21 21 21 22 22 22 23 24 24 24 24 24 23 23 23 23
21 21 21 21 20 20 20 21 21 21 21 22 22 22 22 21 21 21 21 21 21 22 22 22 22 22 23 23 24 24 24 25 26 26 26 25 25 24
22 22 22 21 21 21 22 23 23 22 22 22 22 22 22 22 22 22 22 22 22 23 23 23 24 24 25 25 25 25 25 25 26 26 26 26 26 26
23 22 22 23 22 23 24 24 23 23 23 22 22 23 23 23 24 24 24 24 25 25 25 24 25 26 26 26 26 27 27 27 27 27 27 27 27 27
23 23 24 25 25 25 25 25 25 24 24 23 23 24 24 24 24 25 26 26 26 26 26 26 26 26 26 26 27 27 27 28 28 28 28 28 28 28
25 25 26 26 27 27 26 26 26 25 25 25 25 24 24 25 25 25 25 26 27 27 27 27 27 26 26 26 26 27 27 27 28 28 28 28 29 29
27 27 28 28 28 28 28 27 26 26 25 26 25 25 25 25 26 26 26 27 27 28 28 28 27 26 26 27 27 28 28 28 28 28 28 28 29 30
29 29 29 29 29 29 29 28 27 27 26 26 26 26 27 27 26 26 27 27 27 27 27 27 28 27 27 27 28 28 29 29 29 29 29 29 30 30
29 30 30 30 29 29 29 29 28 28 28 27 27 27 27 28 27 27 27 28 28 28 28 28 28 28 28 28 27 27 28 28 29 29 29 30 30 30
29 29 29 30 29 29 29 29 29 28 28 28 28 28 28 28 29 28 28 28 28 28 29 28 28 29 29 29 29 28 29 29 29 29 29 30 30 30
29 29 29 29 29 29 29 29 29 29 29 29 29 29 29 29 30 29 29 29 28 29 29 29 29 29 28 28 28 29 29 29 29 29 30 30 30 30
30 29 29 29 29 29 29 29 29 29 30 30 30 30 30 30 30 30 30 30 29 29 29 29 28 28 28 29 29 29 29 29 29 30 29 29 29 30
29 29 29 28 29 29 29 29 29 29 29 30 30 30 30 30 30 30 30 30 30 29 29 29 29 29 29 29 29 29 29 29 29 29 29 29 29 30
29 28 28 28 28 28 28 28 28 29 29 29 29 30 30 30 30 30 30 30 30 29 29 29 30 29 29 29 29 29 29 29 30 29 30 30 30 30
29 28 28 28 28 28 28 28 28 28 29 29 29 29 30 30 30 30 30 30 30 30 29 29 29 29 29 29 28 29 29 29 29 28 29 29 29 30
29 28 28 28 29 28 28 28 28 29 29 29 29 29 29 29 30 30 30 30 29 29 29 29 29 29 28 28 28 29 29 28 28 28 28 29 30 30
29 29 29 29 29 29 29 29 29 29 28 29 28 28 28 29 29 29 29 29 28 28 28 28 28 27 27 28 28 29 29 29 29 29 28 29 29 30
29 29 29 29 29 29 29 29 29 29 28 28 28 28 27 28 27 27 27 27 27 27 27 27 27 27 27 27 28 28 28 29 29 28 29 28 28 28
30 30 29 29 29 29 29 29 29 29 28 28 28 28 27 27 27 26 27 27 26 26 26 27 26 26 26 26 27 27 27 28 28 28 28 28 27 27
31 30 30 30 30 30 29 29 29 28 28 27 27 27 27 27 27 27 27 27 27 27 26 26 26 26 26 26 25 26 27 27 27 27 27 27 27 27
30 30 30 30 30 30 30 30 29 28 27 27 27 27 28 27 27 26 26 27 27 27 26 26 26 26 26 26 25 25 26 26 26 26 27 27 27 26
28 28 29 30 30 30 31 31 29 28 27 27 28 28 28 28 27 26 27 27 26 26 25 25 26 26 26 26 25 25 25 26 26 26 26 25 25 25
28 28 29 29 29 29 29 30 29 28 28 28 29 29 28 28 27 27 27 26 25 25 24 24 25 26 25 25 25 24 24 24 25 25 24 23 23 23